Regional Weather Roundup
Issued by NWS

Home | Current Version | Previous Version | Graphics & Text | Print | Product List | Glossary On
Versions: 1 2 3 4 5 6 7 8 9 10 11 12 13 14 15 16 17 18 19 20 21 22 23 24 25 26 27 28 29 30 31 32 33 34 35 36 37 38 39 40 41 42 43 44 45 46 47 48 49 50
000
ASUS43 KLSX 180857
RWRMO

WEATHER SUMMARY FOR MISSOURI
NATIONAL WEATHER SERVICE SPRINGFIELD MO
400 AM CDT WED OCT 18 2017

NOTE: "FAIR" INDICATES FEW OR NO CLOUDS BELOW 12,000 FEET WITH NO
       SIGNIFICANT WEATHER AND/OR OBSTRUCTIONS TO VISIBILITY.
       CURRENT SKY AND/OR WEATHER CONDITIONS ARE NOT AVAILABLE FOR
       CHILLICOTHE AND FARMINGTON.

MOZ001>031-035>038-043-044-053-054-181000-
...NORTHERN AND WESTERN MISSOURI...

CITY           SKY/WX    TMP DP  RH WIND       PRES   REMARKS
KANSAS CTY INT CLEAR     55  46  71 SW14      30.05F
LEE`S SUMMIT   CLEAR     54  45  71 S15       30.08F
ST JOSEPH      CLEAR     53  47  79 S8        30.04F
CHILLICOTHE      N/A     49  46  90 CALM      30.09F

$$
MOZ066>068-077>081-088>096-101>105-181000-
...SOUTHWEST MISSOURI...

CITY           SKY/WX    TMP DP  RH WIND       PRES   REMARKS
SPRINGFIELD    CLEAR     47  40  76 S10       30.15F

$$
MOZ032>034-039>042-045>050-055>058-069>072-181000-
...CENTRAL MISSOURI...

CITY           SKY/WX    TMP DP  RH WIND       PRES   REMARKS
COLUMBIA       NOT AVBL
JEFFERSON CITY CLEAR     50  40  68 E5        30.16S
ROLLA          CLEAR     52  40  63 S15       30.17F
SEDALIA        CLEAR     49  44  83 S9        30.12F
WARRENSBURG    CLEAR     50  43  76 S9        30.10S

$$
MOZ051-052-059>065-181000-
...EAST CENTRAL MISSOURI...

CITY           SKY/WX    TMP DP  RH WIND       PRES   REMARKS
ST LOUIS INTL  CLEAR     52  42  69 S5        30.19S

$$
MOZ072>076-082>087-097>100-106>115-181000-
...SOUTH CENTRAL AND SOUTHEAST MISSOURI...

CITY           SKY/WX    TMP DP  RH WIND       PRES   REMARKS
CAPE GIRARDEAU CLEAR     41  39  93 CALM      30.22F
POPLAR BLUFF   CLEAR     39  38  96 CALM      30.21F
WEST PLAINS    CLEAR     49  38  65 S5        30.20F

$$



USA.gov is the U.S. government's official web portal to all federal, state and local government web resources and services.